When you browse on this site, cookies collect data to enhance your experience and personalize the content and advertising you see.
Visit our Privacy Policy to learn more. By continuing to use the site, you agree to this use of cookies and data.
  • In Lithuania
  • List of Countries
  • For 7 days
  • Water Temperature
  • Weather Map
  • Weather Widgets
  • user-avatar
    Login

    Hourly Weather Klagenfurt

    Today, 21 January, Tuesday

    Time Temperature Precipitation Wind Pressure Humidity
    00:00 -2°C° 0 mm 1 mps 706 mmHg 89%
    01:00 -2°C° 0 mm 1 mps 706 mmHg 92%
    02:00 -2°C° 0 mm 1 mps 706 mmHg 91%
    03:00 -2°C° 0 mm 1 mps 705 mmHg 90%
    04:00 -3°C° 0 mm 0 mps 705 mmHg 89%
    05:00 -3°C° 0 mm 0 mps 705 mmHg 88%
    06:00 -3°C° 0 mm 0 mps 705 mmHg 87%
    07:00 -3°C° 0 mm 0 mps 705 mmHg 88%
    08:00 -2°C° 0 mm 0 mps 705 mmHg 82%
    09:00 -2°C° 0 mm 0 mps 705 mmHg 77%
    10:00 -1°C° 0 mm 0 mps 705 mmHg 71%
    11:00 +1°C° 0 mm 0 mps 704 mmHg 66%
    12:00 +2°C° 0 mm 0 mps 704 mmHg 60%
    13:00 +4°C° 0 mm 1 mps 704 mmHg 54%
    14:00 +2°C° 0 mm 0 mps 704 mmHg 58%
    15:00 +2°C° 0 mm 0 mps 703 mmHg 62%
    16:00 +1°C° 0 mm 0 mps 702 mmHg 66%
    17:00 0°C° 0 mm 0 mps 702 mmHg 65%
    18:00 0°C° 0 mm 0 mps 702 mmHg 64%
    19:00 -1°C° 0 mm 0 mps 702 mmHg 63%
    20:00 -1°C° 0 mm 0 mps 702 mmHg 59%
    21:00 -1°C° 0 mm 0 mps 702 mmHg 55%
    22:00 0°C° 0 mm 0 mps 701 mmHg 51%
    23:00 0°C° 0 mm 0 mps 701 mmHg 48%

    Tomorrow, 22 January, Wednesday

    Time Temperature Precipitation Wind Pressure Humidity
    00:00 0°C° 0 mm 0 mps 701 mmHg 45%
    01:00 0°C° 0 mm 0 mps 701 mmHg 43%
    02:00 0°C° 0 mm 0 mps 700 mmHg 41%
    03:00 0°C° 0 mm 0 mps 700 mmHg 39%
    04:00 +1°C° 0 mm 1 mps 699 mmHg 37%
    05:00 +1°C° 0 mm 1 mps 699 mmHg 36%
    06:00 +1°C° 0 mm 1 mps 699 mmHg 35%
    07:00 +1°C° 0 mm 1 mps 699 mmHg 34%
    08:00 +2°C° 0 mm 1 mps 699 mmHg 34%
    09:00 +3°C° 0 mm 1 mps 699 mmHg 33%
    10:00 +5°C° 0 mm 1 mps 699 mmHg 32%
    11:00 +6°C° 0 mm 1 mps 699 mmHg 33%
    12:00 +7°C° 0 mm 1 mps 699 mmHg 34%
    13:00 +8°C° 0 mm 1 mps 699 mmHg 35%
    14:00 +5°C° 0 mm 0 mps 698 mmHg 41%
    15:00 +4°C° 0 mm 0 mps 698 mmHg 47%
    16:00 +3°C° 0 mm 0 mps 697 mmHg 53%
    17:00 +2°C° 0 mm 0 mps 697 mmHg 52%
    18:00 +1°C° 0 mm 0 mps 697 mmHg 51%
    19:00 +1°C° 0 mm 0 mps 697 mmHg 51%
    20:00 0°C° 0 mm 0 mps 697 mmHg 52%
    21:00 0°C° 0 mm 0 mps 698 mmHg 53%
    22:00 0°C° 0 mm 1 mps 698 mmHg 54%
    23:00 -1°C° 0 mm 0 mps 698 mmHg 55%

    Day after tomorrow, 23 January, Thursday

    Time Temperature Precipitation Wind Pressure Humidity
    00:00 -1°C° 0 mm 0 mps 698 mmHg 57%
    01:00 -1°C° 0 mm 0 mps 698 mmHg 58%
    02:00 -1°C° 0 mm 0 mps 698 mmHg 57%
    03:00 -1°C° 0 mm 0 mps 698 mmHg 57%
    04:00 -1°C° 0 mm 0 mps 697 mmHg 56%
    05:00 -1°C° 0 mm 0 mps 697 mmHg 57%
    06:00 -2°C° 0 mm 0 mps 697 mmHg 58%
    07:00 -1°C° 0 mm 1 mps 697 mmHg 58%
    08:00 0°C° 0 mm 1 mps 698 mmHg 59%
    09:00 +1°C° 0 mm 1 mps 698 mmHg 59%
    10:00 +2°C° 0 mm 1 mps 698 mmHg 59%
    11:00 +3°C° 0 mm 1 mps 698 mmHg 60%
    12:00 +3°C° 0 mm 1 mps 698 mmHg 61%
    13:00 +4°C° 0 mm 1 mps 697 mmHg 61%
    14:00 +3°C° 0 mm 1 mps 697 mmHg 66%
    15:00 +3°C° 0 mm 1 mps 696 mmHg 70%
    16:00 +1°C° 0 mm 0 mps 696 mmHg 74%
    17:00 0°C° 0 mm 0 mps 696 mmHg 78%
    18:00 -1°C° 0 mm 0 mps 695 mmHg 81%
    19:00 -2°C° 0 mm 0 mps 695 mmHg 85%
    20:00 -2°C° 0 mm 0 mps 695 mmHg 84%
    21:00 -2°C° 0 mm 0 mps 695 mmHg 84%
    22:00 -2°C° 0 mm 0 mps 695 mmHg 83%
    23:00 -2°C° 0 mm 0 mps 695 mmHg 83%

    24 January, Friday

    Time Temperature Precipitation Wind Pressure Humidity
    00:00 -2°C° 0 mm 0 mps 695 mmHg 82%
    01:00 -2°C° 0 mm 0 mps 695 mmHg 82%
    02:00 -2°C° 0 mm 0 mps 694 mmHg 81%
    03:00 -2°C° 0 mm 0 mps 694 mmHg 81%
    04:00 -2°C° 0 mm 0 mps 694 mmHg 80%
    05:00 -2°C° 0 mm 0 mps 694 mmHg 79%
    06:00 -2°C° 0 mm 0 mps 693 mmHg 77%
    07:00 -2°C° 0 mm 0 mps 693 mmHg 76%
    08:00 -1°C° 0 mm 0 mps 694 mmHg 70%
    09:00 +1°C° 0 mm 0 mps 694 mmHg 64%
    10:00 +3°C° 0 mm 1 mps 694 mmHg 59%
    11:00 +4°C° 0 mm 1 mps 694 mmHg 57%
    12:00 +5°C° 0 mm 1 mps 694 mmHg 55%
    13:00 +6°C° 0 mm 1 mps 694 mmHg 53%
    14:00 +5°C° 0 mm 1 mps 694 mmHg 59%
    15:00 +4°C° 0 mm 1 mps 693 mmHg 66%
    16:00 +3°C° 0 mm 1 mps 693 mmHg 72%
    17:00 +3°C° 0 mm 1 mps 693 mmHg 77%
    18:00 +2°C° 0 mm 1 mps 692 mmHg 81%
    19:00 +1°C° 0 mm 1 mps 692 mmHg 86%
    20:00 +2°C° 0 mm 1 mps 692 mmHg 88%
    21:00 +2°C° 0 mm 1 mps 692 mmHg 90%
    22:00 +2°C° 0 mm 1 mps 692 mmHg 92%
    23:00 +2°C° 0.1 mm 1 mps 692 mmHg 92%

    25 January, Saturday

    Time Temperature Precipitation Wind Pressure Humidity
    00:00 +2°C° 0.1 mm 1 mps 692 mmHg 92%
    01:00 +2°C° 0.1 mm 1 mps 691 mmHg 93%
    02:00 +2°C° 0.2 mm 1 mps 691 mmHg 93%
    03:00 +3°C° 0.2 mm 1 mps 691 mmHg 94%
    04:00 +3°C° 0.2 mm 1 mps 691 mmHg 95%
    05:00 +3°C° 0.2 mm 1 mps 690 mmHg 95%
    06:00 +1°C° 0.2 mm 0 mps 690 mmHg 95%
    07:00 +1°C° 0.2 mm 0 mps 690 mmHg 95%
    08:00 +2°C° 0.2 mm 0 mps 690 mmHg 94%
    09:00 +2°C° 0.2 mm 0 mps 691 mmHg 94%
    10:00 +2°C° 0.2 mm 0 mps 691 mmHg 93%
    11:00 +2°C° 0.3 mm 0 mps 691 mmHg 93%
    12:00 +2°C° 0.3 mm 0 mps 691 mmHg 94%
    13:00 +3°C° 0.3 mm 0 mps 691 mmHg 95%
    14:00 +2°C° 0.3 mm 0 mps 691 mmHg 96%
    15:00 +2°C° 0.3 mm 0 mps 691 mmHg 96%
    16:00 +2°C° 0.3 mm 0 mps 690 mmHg 97%
    17:00 +2°C° 0 mm 0 mps 691 mmHg 97%
    18:00 +2°C° 0 mm 0 mps 691 mmHg 96%
    19:00 +2°C° 0 mm 0 mps 691 mmHg 96%
    20:00 +1°C° 0 mm 0 mps 691 mmHg 96%
    21:00 +1°C° 0 mm 0 mps 692 mmHg 96%
    22:00 +1°C° 0 mm 0 mps 692 mmHg 95%
    23:00 +1°C° 0 mm 0 mps 692 mmHg 95%

    26 January, Sunday

    Time Temperature Precipitation Wind Pressure Humidity
    00:00 +1°C° 0 mm 0 mps 692 mmHg 95%
    01:00 +1°C° 0 mm 0 mps 692 mmHg 95%
    02:00 +1°C° 0 mm 0 mps 692 mmHg 94%
    03:00 0°C° 0 mm 0 mps 691 mmHg 94%
    04:00 0°C° 0 mm 0 mps 691 mmHg 94%
    05:00 0°C° 0 mm 0 mps 691 mmHg 94%
    06:00 0°C° 0 mm 0 mps 692 mmHg 94%
    07:00 0°C° 0 mm 0 mps 692 mmHg 93%
    08:00 +1°C° 0 mm 0 mps 692 mmHg 90%
    09:00 +2°C° 0 mm 0 mps 693 mmHg 87%
    10:00 +3°C° 0 mm 0 mps 693 mmHg 84%
    11:00 +5°C° 0 mm 1 mps 693 mmHg 81%
    12:00 +5°C° 0 mm 1 mps 693 mmHg 78%
    13:00 +6°C° 0 mm 1 mps 692 mmHg 75%
    14:00 +6°C° 0 mm 1 mps 692 mmHg 78%
    15:00 +4°C° 0 mm 0 mps 692 mmHg 81%
    16:00 +4°C° 0 mm 0 mps 692 mmHg 83%
    17:00 +3°C° 0 mm 0 mps 692 mmHg 86%
    18:00 +2°C° 0 mm 0 mps 692 mmHg 88%
    19:00 +2°C° 0 mm 1 mps 693 mmHg 90%
    20:00 +1°C° 0 mm 0 mps 693 mmHg 90%
    21:00 +1°C° 0 mm 0 mps 693 mmHg 90%
    22:00 +1°C° 0 mm 0 mps 693 mmHg 89%
    23:00 0°C° 0 mm 0 mps 693 mmHg 89%
    Show more